sat.trackr.live / text

‹ back to catalog

STARLINK-33624

NORAD 63071 · 2025-035V

PAYLOAD ACTIVE UNKNOWN

§ Identity

Operator
Country
US
Launch date
2025-02-21
Launch site
AFETR
Launch vehicle
Mass (kg)
RCS (m²)

Purposes: comms

External: N2YO · Heavens-Above · Gunter

§ Orbital elements

Epoch: 2026-09-20T07:41:57.732576Z

Period
93.76 min
Inclination
42.9974°
Eccentricity
0.0009830
Mean motion
15.35888889 rev/d
Perigee alt
451.6 km
Apogee alt
465.0 km
Semi-major
6,836.4 km
B*
8.1885e-4
RAAN
121.1808°
Arg perigee
243.6525°
Mean anomaly
116.3321°
Rev number
8,946

§ Raw data

STARLINK-336241 63071U 25035V   26263.32080709  .00029096  00000+0  81885-3 0  99982 63071  42.9974 121.1808 0009830 243.6525 116.3321 15.35888889 89469

JSON: /api/v1/satellites/63071 · /tle

For live sub-satellite position, see the globe view (requires WebGL).

§ Visibility from observer

Set your observer location to see the next 7 days of passes ≥ 10°. The values pass through the URL so the page stays shareable.

No JS? Fill the form by hand. The geolocation button needs JavaScript.